KB4SYV Weather Reports


Display with metric or nautical units.
time (UTC)temp
F
wind
direction
speed
MPH
gust
MPH
rain 1hr
in
rain 24hr
in
rain mn
in
humidity
%
barometer
mb
20260506051002 69 281 0.0 0.0 0.00 0.00 0.00 56 1036.2
20260506050503 69 281 0.0 0.0 0.00 0.00 0.00 55 1036.2
20260506045002 70 281 0.0 2.0 0.00 0.00 0.00 55 1036.0
20260506044503 69 147 0.0 2.0 0.00 0.00 0.00 55 1035.8
20260506044003 69 264 0.0 1.0 0.00 0.00 0.00 55 1035.8
20260506043502 70 264 0.0 2.0 0.00 0.00 0.00 54 1035.8
20260506043003 70 264 0.0 2.0 0.00 0.00 0.00 53 1036.0
20260506042502 70 247 0.0 0.0 0.00 0.00 0.00 53 1036.2
20260506042003 70 247 0.0 2.0 0.00 0.00 0.00 53 1036.2
20260506041502 70 247 0.0 2.0 0.00 0.00 0.00 52 1036.1
20260506041024 70 284 0.0 0.0 0.00 0.00 0.00 52 1036.1
20260506040502 70 284 0.0 0.0 0.00 0.00 0.00 52 1036.2
20260506040003 70 284 0.0 5.0 0.00 0.00 0.00 52 1036.1
20260506035503 70 284 0.0 5.0 0.00 0.00 0.00 51 1036.0
20260506035002 70 63 0.0 0.0 0.00 0.00 0.00 51 1035.9
20260506034503 70 63 0.0 2.0 0.00 0.00 0.00 50 1035.9
20260506034002 70 63 0.0 2.0 0.00 0.00 0.00 51 1035.9
20260506033503 70 240 0.0 0.0 0.00 0.00 0.00 50 1035.8
20260506033003 70 240 0.0 1.0 0.00 0.00 0.00 50 1035.9
20260506032502 70 240 0.0 4.0 0.00 0.00 0.00 50 1036.1
20260506032003 70 272 1.0 4.0 0.00 0.00 0.00 49 1036.1
20260506031502 70 254 0.0 2.0 0.00 0.00 0.00 50 1035.9
20260506031003 70 307 0.0 2.0 0.00 0.00 0.00 50 1035.9
20260506030524 70 289 0.0 3.0 0.00 0.00 0.00 50 1036.0
20260506030044 70 268 1.0 3.0 0.00 0.00 0.00 50 1036.0
20260506025503 70 229 0.0 0.0 0.00 0.00 0.00 50 1035.9
20260506025002 71 229 0.0 0.0 0.00 0.00 0.00 50 1035.8
20260506024524 71 229 0.0 1.0 0.00 0.00 0.00 50 1035.8
20260506024003 71 251 0.0 3.0 0.00 0.00 0.00 50 1035.8
20260506023524 71 283 1.0 3.0 0.00 0.00 0.00 49 1035.8
20260506023003 71 285 0.0 0.0 0.00 0.00 0.00 50 1035.8
20260506022502 71 285 0.0 1.0 0.00 0.00 0.00 49 1035.7
20260506022003 71 285 0.0 1.0 0.00 0.00 0.00 49 1035.4
20260506021502 71 292 0.0 1.0 0.00 0.00 0.00 50 1035.2
20260506021003 71 195 0.0 2.0 0.00 0.00 0.00 50 1035.2
20260506020503 71 195 0.0 3.0 0.00 0.00 0.00 49 1035.1
20260506020002 71 259 0.0 3.0 0.00 0.00 0.00 48 1035.1
20260506015524 71 194 0.0 5.0 0.00 0.00 0.00 50 1035.2
20260506015002 71 264 2.0 5.0 0.00 0.00 0.00 48 1035.3
20260506014503 71 267 1.0 6.0 0.00 0.00 0.00 50 1035.3
20260506014002 71 311 1.0 6.0 0.00 0.00 0.00 50 1035.1
20260506013523 71 78 0.0 5.0 0.00 0.00 0.00 50 1035.3
20260506013003 71 351 0.0 1.0 0.00 0.00 0.00 49 1035.2
20260506012502 71 254 0.0 1.0 0.00 0.00 0.00 50 1035.0
20260506012024 71 254 0.0 3.0 0.00 0.00 0.00 50 1035.0
20260506011503 71 252 0.0 9.0 0.00 0.00 0.00 50 1035.0
20260506011002 70 299 1.0 9.0 0.00 0.00 0.00 51 1034.8
20260506010503 70 253 1.0 3.0 0.00 0.00 0.00 51 1034.9
20260506010002 70 275 0.0 3.0 0.00 0.00 0.00 51 1034.9
20260506005503 70 275 0.0 3.0 0.00 0.00 0.00 50 1034.8
20260506005003 70 269 1.0 4.0 0.00 0.00 0.00 52 1034.6
20260506004503 70 316 1.0 4.0 0.00 0.00 0.00 51 1034.8
20260506004003 71 133 0.0 3.0 0.00 0.00 0.00 52 1034.9
20260506003502 71 133 0.0 3.0 0.00 0.00 0.00 52 1035.0
20260506003003 71 251 0.0 0.0 0.00 0.00 0.00 50 1034.8
20260506002503 71 251 0.0 5.0 0.00 0.00 0.00 51 1034.8
20260506002003 71 279 1.0 5.0 0.00 0.00 0.00 48 1034.9
20260506001502 71 268 0.0 2.0 0.00 0.00 0.00 53 1035.1
20260506001003 71 306 0.0 2.0 0.00 0.00 0.00 54 1035.0
20260506000502 72 26 0.0 2.0 0.00 0.00 0.00 53 1034.9
20260506000002 72 170 0.0 1.0 0.00 0.00 0.00 53 1034.9
20260505235502 72 170 0.0 3.0 0.00 0.00 0.00 51 1035.1
20260505235024 72 257 0.0 5.0 0.00 0.00 0.00 54 1035.2
20260505234503 72 334 2.0 5.0 0.00 0.00 0.00 48 1035.3
20260505234024 72 32 0.0 3.0 0.00 0.00 0.00 54 1035.2
20260505233502 72 215 0.0 2.0 0.00 0.00 0.00 54 1035.1
20260505233003 72 215 0.0 2.0 0.00 0.00 0.00 54 1035.2
20260505232524 73 269 0.0 2.0 0.00 0.00 0.00 55 1035.1
20260505232002 73 322 0.0 1.0 0.00 0.00 0.00 55 1035.1
20260505231524 73 318 0.0 1.0 0.00 0.00 0.00 53 1035.1
20260505231002 73 291 0.0 1.0 0.00 0.00 0.00 52 1035.1
20260505230525 74 340 0.0 0.0 0.00 0.00 0.00 52 1035.1
20260505230002 74 340 0.0 0.0 0.00 0.00 0.00 51 1035.0
20260505225503 74 312 0.0 1.0 0.00 0.00 0.00 51 1035.0
20260505225002 74 316 0.0 1.0 0.00 0.00 0.00 50 1035.0
20260505224503 74 296 0.0 0.0 0.00 0.00 0.00 48 1034.9
20260505224002 74 296 0.0 1.0 0.00 0.00 0.00 46 1034.9
20260505223524 74 296 0.0 1.0 0.00 0.00 0.00 48 1034.9
20260505223003 74 285 0.0 0.0 0.00 0.00 0.00 47 1035.0
20260505222502 74 285 0.0 0.0 0.00 0.00 0.00 46 1035.0
20260505222003 75 285 0.0 0.0 0.00 0.00 0.00 46 1035.0
20260505221502 75 285 0.0 0.0 0.00 0.00 0.00 43 1035.1
20260505221003 75 285 0.0 1.0 0.00 0.00 0.00 44 1035.2
20260505220502 76 285 0.0 3.0 0.00 0.00 0.00 41 1035.2
20260505220003 77 252 0.0 3.0 0.00 0.00 0.00 41 1035.2
20260505215503 76 327 1.0 3.0 0.00 0.00 0.00 41 1035.2
20260505215024 76 276 1.0 3.0 0.00 0.00 0.00 40 1035.2
20260505214503 75 297 1.0 4.0 0.00 0.00 0.00 41 1035.2
20260505214002 75 284 2.0 4.0 0.00 0.00 0.00 39 1035.0
20260505213503 75 271 1.0 5.0 0.00 0.00 0.00 39 1034.8
20260505213002 76 265 3.0 5.0 0.00 0.00 0.00 39 1035.1
20260505212503 76 272 3.0 5.0 0.00 0.00 0.00 39 1035.1
20260505212003 76 271 2.0 6.0 0.00 0.00 0.00 38 1035.1
20260505211503 77 174 1.0 6.0 0.00 0.00 0.00 38 1035.3
20260505211003 77 300 2.0 10.0 0.00 0.00 0.00 38 1035.4
20260505210502 77 247 3.0 10.0 0.00 0.00 0.00 37 1035.4
20260505210003 76 276 1.0 7.0 0.00 0.00 0.00 40 1035.6
20260505205503 76 302 0.0 7.0 0.00 0.00 0.00 40 1035.4
20260505205003 76 282 1.0 9.0 0.00 0.00 0.00 39 1035.3
20260505204502 76 255 4.0 9.0 0.00 0.00 0.00 38 1035.6
20260505204003 77 257 4.0 9.0 0.00 0.00 0.00 37 1035.7
20260505203503 77 253 2.0 7.0 0.00 0.00 0.00 38 1035.8
20260505203003 77 286 3.0 7.0 0.00 0.00 0.00 37 1035.8
20260505202503 77 276 4.0 10.0 0.00 0.00 0.00 38 1035.9
20260505202002 77 204 1.0 10.0 0.00 0.00 0.00 41 1036.0
20260505201503 77 281 4.0 10.0 0.00 0.00 0.00 39 1036.0
20260505201002 77 268 3.0 8.0 0.00 0.00 0.00 38 1036.1
20260505200503 77 202 2.0 8.0 0.00 0.00 0.00 40 1036.1
20260505200002 77 280 4.0 9.0 0.00 0.00 0.00 40 1036.3
20260505195502 77 261 4.0 9.0 0.00 0.00 0.00 38 1036.3
20260505195003 77 184 2.0 8.0 0.00 0.00 0.00 39 1036.4
20260505194503 76 242 1.0 9.0 0.00 0.00 0.00 40 1036.6
20260505194003 76 264 3.0 9.0 0.00 0.00 0.00 38 1036.9
20260505193502 76 281 3.0 9.0 0.00 0.00 0.00 38 1037.0
20260505193003 80 301 2.0 5.0 0.00 0.00 0.00 39 1036.9
20260505192523 75 255 1.0 7.0 0.00 0.00 0.00 42 1037.2
20260505192003 75 268 4.0 7.0 0.00 0.00 0.00 39 1037.2
20260505191502 76 188 1.0 6.0 0.00 0.00 0.00 100 1036.5
20260505191003 75 275 3.0 6.0 0.00 0.00 0.00 40 1037.4
20260505190502 75 272 3.0 6.0 0.00 0.00 0.00 39 1037.4
20260505190003 75 265 1.0 9.0 0.00 0.00 0.00 40 1037.4
20260505185502 75 259 4.0 9.0 0.00 0.00 0.00 37 1037.6
20260505185003 76 259 3.0 8.0 0.00 0.00 0.00 40 1037.6
20260505184502 76 271 3.0 6.0 0.00 0.00 0.00 38 1037.6
20260505184003 76 294 2.0 6.0 0.00 0.00 0.00 42 1037.6
20260505183502 75 283 3.0 8.0 0.00 0.00 0.00 40 1037.6
20260505183002 76 257 3.0 10.0 0.00 0.00 0.00 40 1037.7
20260505182503 76 235 5.0 10.0 0.00 0.00 0.00 38 1037.6
20260505182002 76 318 2.0 9.0 0.00 0.00 0.00 40 1037.6
20260505181503 75 304 3.0 10.0 0.00 0.00 0.00 40 1037.7
20260505181002 75 243 4.0 10.0 0.00 0.00 0.00 42 1037.8
20260505180503 76 274 2.0 6.0 0.00 0.00 0.00 40 1037.8
20260505180002 76 276 3.0 7.0 0.00 0.00 0.00 42 1037.9
20260505175503 76 290 1.0 8.0 0.00 0.00 0.00 42 1038.1
20260505175024 76 270 5.0 8.0 0.00 0.00 0.00 41 1038.2
20260505174503 76 124 2.0 11.0 0.00 0.00 0.00 41 1038.2
20260505174023 76 290 4.0 11.0 0.00 0.00 0.00 40 1038.4
20260505173503 76 130 4.0 14.0 0.00 0.00 0.00 41 1038.2
20260505173003 75 219 1.0 14.0 0.00 0.00 0.00 43 1038.5
20260505172502 75 243 1.0 12.0 0.00 0.00 0.00 44 1038.5
20260505172003 75 263 3.0 13.0 0.00 0.00 0.00 44 1038.6
20260505171502 75 284 3.0 13.0 0.00 0.00 0.00 44 1038.6
20260505171003 75 267 2.0 6.0 0.00 0.00 0.00 46 1038.6
20260505170502 74 297 3.0 6.0 0.00 0.00 0.00 48 1038.6
20260505170003 74 143 2.0 5.0 0.00 0.00 0.00 50 1038.7
20260505165502 73 258 2.0 9.0 0.00 0.00 0.00 49 1038.8
20260505165003 73 273 2.0 9.0 0.00 0.00 0.00 49 1038.7
20260505164502 74 282 4.0 9.0 0.00 0.00 0.00 49 1038.6
20260505164002 74 303 4.0 10.0 0.00 0.00 0.00 48 1038.6
20260505163503 74 307 4.0 10.0 0.00 0.00 0.00 49 1038.6
20260505163002 73 251 3.0 10.0 0.00 0.00 0.00 48 1038.6
20260505162503 73 208 4.0 10.0 0.00 0.00 0.00 48 1038.5
20260505162023 74 233 4.0 7.0 0.00 0.00 0.00 47 1038.6
20260505161503 73 153 2.0 11.0 0.00 0.00 0.00 49 1038.7
20260505161002 73 267 2.0 11.0 0.00 0.00 0.00 48 1038.8
20260505160503 73 287 1.0 10.0 0.00 0.00 0.00 47 1038.8
20260505153003 71 121 1.0 4.0 0.00 0.00 0.00 57 1039.0
20260505152502 71 322 1.0 4.0 0.00 0.00 0.00 57 1039.0
20260505152002 71 254 0.0 3.0 0.00 0.00 0.00 59 1039.1
20260505151503 71 319 1.0 3.0 0.00 0.00 0.00 58 1038.9
20260505151002 70 117 0.0 5.0 0.00 0.00 0.00 60 1038.9
20260505150503 70 112 1.0 5.0 0.00 0.00 0.00 59 1039.0
20260505140503 65 22 0.0 0.0 0.00 0.00 0.00 65 1039.7
20260505125003 56 32 0.0 0.0 0.00 0.00 0.00 85 1039.0
20260505124502 56 32 0.0 0.0 0.00 0.00 0.00 87 1039.0
20260505124024 55 32 0.0 0.0 0.00 0.00 0.00 88 1038.8
20260505123503 54 32 0.0 0.0 0.00 0.00 0.00 88 1038.8
20260505123002 53 32 0.0 0.0 0.00 0.00 0.00 89 1038.9
20260505122503 53 32 0.0 0.0 0.00 0.00 0.00 90 1038.9
20260505122002 52 32 0.0 0.0 0.00 0.00 0.00 91 1038.8
20260505121503 52 32 0.0 0.0 0.00 0.00 0.00 92 1038.7
20260505121024 51 32 0.0 0.0 0.00 0.00 0.00 93 1038.8
20260505120524 50 32 0.0 0.0 0.00 0.00 0.00 95 1038.7
20260505120003 50 32 0.0 0.0 0.00 0.00 0.00 95 1038.6
20260505115503 50 32 0.0 0.0 0.00 0.00 0.00 95 1038.5
20260505115003 49 32 0.0 0.0 0.00 0.00 0.00 95 1038.5
20260505114503 49 32 0.0 0.0 0.00 0.00 0.00 95 1038.6
20260505114024 49 32 0.0 0.0 0.00 0.00 0.00 95 1038.5
20260505113502 48 32 0.0 0.0 0.00 0.00 0.00 95 1038.3
20260505113003 48 32 0.0 0.0 0.00 0.00 0.00 95 1038.3
20260505112503 48 32 0.0 0.0 0.00 0.00 0.00 95 1038.3
20260505112002 48 32 0.0 0.0 0.00 0.00 0.00 95 1038.1
20260505111503 48 32 0.0 0.0 0.00 0.00 0.00 95 1038.0
20260505111002 48 32 0.0 0.0 0.00 0.00 0.00 95 1038.0
20260505102003 48 32 0.0 0.0 0.00 0.00 0.00 94 1037.7
20260505101524 48 32 0.0 0.0 0.00 0.00 0.00 94 1037.8
20260505101024 48 32 0.0 0.0 0.00 0.00 0.00 94 1037.8
20260505100502 48 32 0.0 0.0 0.00 0.00 0.00 93 1037.8
20260505100003 49 32 0.0 0.0 0.00 0.00 0.00 93 1037.8
20260505095524 49 32 0.0 2.0 0.00 0.00 0.00 93 1037.9
20260505095024 49 32 0.0 2.0 0.00 0.00 0.00 93 1038.0
20260505094503 49 60 0.0 1.0 0.00 0.00 0.00 93 1037.9
20260505094003 49 164 0.0 0.0 0.00 0.00 0.00 93 1037.9
20260505093002 49 164 0.0 0.0 0.00 0.00 0.00 92 1037.9
20260505092503 49 164 0.0 0.0 0.00 0.00 0.00 92 1037.8
20260505092002 49 164 0.0 0.0 0.00 0.00 0.00 92 1037.8
20260505091503 49 164 0.0 0.0 0.00 0.00 0.00 92 1037.8
20260505091002 49 164 0.0 0.0 0.00 0.00 0.00 92 1037.9
20260505090503 50 164 0.0 2.0 0.00 0.00 0.00 92 1037.8
20260505090024 50 164 0.0 2.0 0.00 0.00 0.00 92 1037.8
20260505085503 50 42 0.0 2.0 0.00 0.00 0.00 92 1038.0
20260505085003 50 326 1.0 3.0 0.00 0.00 0.00 92 1037.9
20260505084502 50 229 0.0 3.0 0.00 0.00 0.00 92 1038.1
20260505084003 50 63 0.0 3.0 0.00 0.00 0.00 92 1038.1
20260505083502 50 33 0.0 0.0 0.00 0.00 0.00 91 1038.0
20260505083003 50 33 0.0 0.0 0.00 0.00 0.00 91 1038.0
20260505082503 50 33 0.0 0.0 0.00 0.00 0.00 91 1038.0
20260505082003 50 33 0.0 0.0 0.00 0.00 0.00 91 1037.9
20260505081503 50 33 0.0 0.0 0.00 0.00 0.00 91 1037.9
20260505081003 50 33 0.0 0.0 0.00 0.00 0.00 90 1038.1
20260505080524 50 33 0.0 0.0 0.00 0.00 0.00 90 1038.0
20260505080002 50 33 0.0 0.0 0.00 0.00 0.00 90 1038.0
20260505075503 51 33 0.0 0.0 0.00 0.00 0.00 90 1037.9
20260505075002 51 33 0.0 0.0 0.00 0.00 0.00 89 1037.9
20260505074503 51 33 0.0 0.0 0.00 0.00 0.00 89 1037.9
20260505074002 51 33 0.0 0.0 0.00 0.00 0.00 89 1037.9
20260505073503 51 33 0.0 0.0 0.00 0.00 0.00 89 1038.0
20260505073002 51 33 0.0 0.0 0.00 0.00 0.00 89 1037.9
20260505072502 51 33 0.0 0.0 0.00 0.00 0.00 89 1038.0
20260505072002 51 33 0.0 0.0 0.00 0.00 0.00 88 1038.0
20260505071503 51 33 0.0 0.0 0.00 0.00 0.00 88 1038.0
20260505071002 51 33 0.0 0.0 0.00 0.00 0.00 88 1037.9
20260505070523 52 33 0.0 0.0 0.00 0.00 0.00 88 1037.9
20260505070003 52 33 0.0 0.0 0.00 0.00 0.00 87 1037.9
20260505065502 52 33 0.0 2.0 0.00 0.00 0.00 87 1037.9
20260505065024 52 33 0.0 2.0 0.00 0.00 0.00 86 1037.9
20260505064502 52 240 1.0 2.0 0.00 0.00 0.00 86 1037.8
20260505064024 52 84 0.0 0.0 0.00 0.00 0.00 86 1037.8
20260505063502 53 84 0.0 2.0 0.00 0.00 0.00 86 1037.9
20260505063002 53 100 0.0 2.0 0.00 0.00 0.00 85 1037.9
20260505062502 53 264 0.0 2.0 0.00 0.00 0.00 85 1037.9
20260505062002 53 263 0.0 3.0 0.00 0.00 0.00 85 1037.9
20260505061503 53 262 1.0 3.0 0.00 0.00 0.00 84 1038.0
20260505061002 53 36 0.0 0.0 0.00 0.00 0.00 84 1037.9
20260505060503 54 36 0.0 0.0 0.00 0.00 0.00 83 1038.0
20260505060003 54 36 0.0 0.0 0.00 0.00 0.00 82 1038.1
20260505055502 54 36 0.0 1.0 0.00 0.00 0.00 81 1038.0
20260505055024 55 36 0.0 2.0 0.00 0.00 0.00 81 1038.1
20260505054503 55 25 0.0 2.0 0.00 0.00 0.00 80 1038.1